Orbital Elements
Epoch 2025 May 5.0 TT = JDT 2460800.5
T 2025 June 13.71797 TT Pike
q 3.8752866 (2000.0) P Q
z -0.0005585 Peri. 353.31301 -0.38263702 +0.02761388
+/-0.0000010 Node 112.13675 +0.88712110 -0.26823152
e 1.0021644 Incl. 94.45698 +0.25807955 +0.96295863
From 1147 observations 2024 Jan. 3-2025 May 9, mean residual 0".5.
|